Location: Chervonnoye
(48.6000°N, 34.4000°E)
Time: 15:05:55
(UTC+00:00)

FO-99 - Visible Passes

Search period start: 03 December 2022 00:00
Search period end: 13 December 2022 00:00
Orbit: 448 x 470 km, 97.1° (Epoch: 02 December)

Date Brightness Start Highest point End Pass type
(mag) Time Alt. Az. Time Alt. Az. Time Alt. Az.
04 Dec ? 04:33:54 10° NE 04:35:55 14° E 04:37:55 10° SE visible
07 Dec ? 04:30:28 10° ENE 04:32:13 13° E 04:33:57 10° ESE visible
10 Dec ? 04:26:52 10° ENE 04:28:15 12° E 04:29:38 10° ESE visible
